Theta_e
323 324 325 327 330 327 328 327 325 326 325 323 322 322 322 323 327 330 328 331 336 338 340 341 338 329 334 333 333 333 333 333 334 334 326 326 327 327 322 318 325 329 329 327 324 325 311 318 317
321 324 325 328 330 330 329 326 326 326 324 323 323 323 324 323 323 328 327 329 335 339 340 341 338 330 331 332 332 331 331 330 330 329 323 327 330 331 329 319 327 323 327 325 327 317 310 310 309
319 323 326 329 330 332 328 326 325 324 323 323 324 324 325 325 329 332 333 333 336 339 341 340 337 330 331 332 330 329 327 324 321 323 326 331 332 332 332 326 316 316 328 327 319 311 311 310 309
321 324 326 329 327 327 327 326 325 325 323 323 324 325 326 326 328 327 329 335 336 342 342 340 337 332 331 331 329 329 328 326 326 330 331 333 333 332 332 327 317 315 325 327 311 311 311 310 309
320 324 324 327 324 324 326 325 325 325 325 325 325 326 326 328 326 327 331 336 336 340 340 339 336 337 331 329 328 329 329 329 329 330 331 333 333 332 332 320 311 309 323 321 309 310 309 309 309
317 321 323 323 321 322 324 325 325 325 325 325 325 326 326 327 326 327 331 338 336 339 340 339 337 336 331 326 325 325 325 326 327 329 330 332 332 333 331 323 310 308 311 309 309 309 309 309 308
314 319 318 317 318 320 323 324 325 326 326 326 326 327 326 328 327 330 338 338 336 338 339 339 337 336 330 324 322 320 319 320 324 327 329 331 331 333 329 325 314 308 308 308 308 309 309 308 309
314 317 315 315 316 318 320 322 323 324 324 324 324 325 326 334 324 325 340 340 338 337 338 339 338 335 331 324 321 316 315 316 321 326 328 329 331 334 328 323 317 310 308 307 307 308 308 308 308
313 314 311 312 314 315 317 320 321 319 321 323 323 323 328 330 323 324 337 340 337 340 338 338 338 336 332 324 320 316 316 315 318 324 326 329 333 331 326 322 316 313 308 307 307 307 307 307 307
310 308 307 309 312 314 314 314 314 316 320 321 322 323 322 322 329 332 330 338 339 339 339 338 338 336 333 325 318 320 326 329 328 325 327 330 332 329 325 319 317 313 308 307 307 307 306 306 307
305 306 304 307 308 308 310 311 312 314 317 319 320 319 319 320 323 331 330 333 337 338 340 338 338 337 334 326 320 328 330 330 331 330 330 331 330 325 320 315 315 317 311 308 307 306 306 307 308
304 302 304 303 303 303 304 305 308 309 312 313 313 312 313 317 320 327 331 331 331 336 337 335 337 337 335 327 319 327 330 330 332 332 333 331 327 322 316 316 320 315 313 308 307 307 307 308 309
303 302 301 301 301 302 301 302 303 304 305 306 307 308 309 315 320 323 328 332 330 335 335 330 328 336 335 329 319 325 326 330 332 334 332 327 324 319 317 311 310 312 310 308 307 307 308 309 310
301 301 301 301 301 302 303 302 301 301 301 303 305 307 310 315 317 319 323 326 329 332 334 331 328 331 334 331 321 322 328 325 329 329 328 326 323 321 317 310 310 311 310 308 307 308 309 310 310
301 302 302 302 301 301 301 301 301 301 300 300 302 304 306 308 311 314 319 323 329 330 332 334 332 331 334 333 325 318 329 327 326 327 324 325 324 322 314 311 310 310 309 308 308 309 312 313 312
301 302 303 302 301 301 301 302 302 300 300 301 301 301 303 306 308 311 315 321 323 328 330 334 332 332 332 333 328 319 328 330 327 326 326 328 327 322 314 311 310 309 309 308 309 313 315 318 319
302 303 303 303 301 301 301 302 302 300 299 299 299 299 300 304 309 313 317 321 321 325 329 331 331 331 332 332 330 323 326 330 330 329 328 329 328 324 315 313 310 309 308 308 311 316 319 320 321
303 302 302 302 301 301 301 302 302 301 300 300 300 301 301 302 303 308 314 319 317 323 331 331 332 331 332 332 331 327 322 328 331 329 328 328 328 326 315 314 312 309 309 309 313 316 317 321 321
303 303 303 303 301 300 302 301 302 301 301 301 301 301 301 301 305 309 310 311 317 321 331 331 330 329 331 331 330 328 326 322 327 327 329 329 327 324 317 317 318 313 310 310 313 317 321 321 320
303 304 305 303 302 300 301 301 301 301 301 300 300 301 302 302 304 315 316 313 319 321 329 331 328 327 328 331 330 330 326 324 326 328 329 329 327 322 318 319 318 315 313 313 317 318 321 321 320
304 304 304 304 303 301 300 302 301 301 300 300 300 299 299 300 303 310 318 319 321 322 324 331 330 326 328 330 330 330 327 322 326 329 330 330 328 323 320 320 320 318 318 317 319 319 321 322 321
307 305 304 303 305 303 301 302 302 302 301 301 300 300 299 300 301 308 316 320 322 324 328 329 331 330 326 327 329 330 328 325 322 327 328 329 329 322 322 321 320 319 318 319 319 321 322 322 322
306 305 304 303 303 303 303 302 301 301 301 301 301 300 300 301 301 312 315 319 322 324 326 328 330 331 330 329 330 329 328 326 326 326 329 329 330 323 324 323 320 319 320 321 321 322 322 322 322
303 303 303 302 303 304 303 303 302 302 302 302 302 300 301 302 309 311 315 318 321 323 325 326 327 330 329 329 329 329 328 328 326 326 326 329 330 324 326 324 321 319 321 322 322 323 323 324 324
303 303 304 304 304 303 299 302 302 303 305 304 304 301 304 308 310 311 313 317 318 321 322 325 326 328 327 328 328 327 326 328 328 326 326 325 329 325 326 327 324 320 322 323 324 324 324 325 325
304 303 304 303 302 302 299 301 302 303 302 302 303 306 306 308 308 308 310 315 315 319 321 323 324 324 324 323 324 326 325 325 325 324 327 326 327 328 325 328 326 323 323 324 325 325 325 325 326
305 305 303 305 304 306 305 306 304 301 302 305 304 302 301 302 304 305 308 311 313 315 320 321 322 322 321 321 324 324 324 324 324 323 323 327 325 328 328 327 328 326 325 325 325 326 326 326 326
304 304 305 306 306 310 308 306 302 302 302 302 301 299 298 298 301 303 303 307 309 313 316 317 320 321 323 321 321 321 322 322 323 323 324 325 327 327 327 326 326 326 325 324 324 326 325 324 325
304 305 306 307 305 312 309 304 300 301 300 300 299 298 298 298 299 299 300 304 307 312 313 314 316 319 319 318 319 320 319 319 320 321 323 322 325 325 324 323 325 325 323 324 324 324 323 322 323
301 305 306 308 308 306 304 302 299 299 299 298 297 296 296 298 298 298 298 301 305 308 310 311 312 313 313 313 314 316 316 314 315 318 319 320 322 321 320 321 322 322 321 321 317 321 322 319 317
Wind_Speed
10 10 7 4 7 6 15 12 8 4 4 4 3 8 7 5 5 2 8 5 11 25 28 26 24 23 24 23 21 20 20 20 19 17 16 14 14 12 10 10 15 17 17 13 16 14 15 17 16
8 7 6 3 8 15 14 14 14 11 5 1 5 7 7 7 9 9 11 7 12 25 29 28 26 24 24 23 22 21 20 20 18 17 16 15 13 12 9 10 13 14 16 15 15 13 16 16 15
8 7 7 4 13 21 18 13 16 13 8 8 6 7 5 3 4 6 8 7 14 25 29 28 27 25 24 23 22 20 20 20 19 18 17 16 14 10 7 7 9 13 17 15 12 15 16 16 16
5 5 5 12 24 20 23 17 15 13 12 8 7 8 4 7 4 9 15 10 17 26 28 29 27 25 24 23 21 21 20 20 19 19 18 18 14 10 6 3 7 13 15 14 15 15 15 14 14
9 6 12 17 28 27 10 14 18 14 10 7 2 5 5 6 8 12 11 10 21 28 29 28 28 25 23 22 22 21 21 20 20 20 19 19 15 13 9 5 7 12 15 14 13 14 13 13 13
8 8 10 22 28 24 22 17 11 14 15 12 10 13 10 8 11 15 11 10 23 30 29 27 27 25 23 21 21 21 22 22 21 21 21 20 16 14 10 6 7 11 13 12 12 12 12 12 11
10 10 21 24 25 24 23 22 23 21 20 16 7 8 7 10 9 9 5 11 23 31 30 27 27 25 23 21 21 21 22 23 24 22 22 21 18 15 11 7 6 10 12 12 12 11 11 10 9
6 6 14 19 21 28 15 11 15 25 28 26 17 8 12 2 11 13 8 16 20 29 30 29 27 26 24 23 21 21 21 24 25 25 23 21 19 15 11 9 8 10 12 13 12 11 10 9 8
5 7 14 20 17 16 14 14 16 6 8 12 14 16 5 9 15 12 5 14 19 27 31 32 28 26 25 23 23 22 22 23 25 26 24 22 20 16 13 11 11 14 13 13 12 10 9 8 8
9 7 12 8 5 9 8 7 7 6 14 13 13 10 5 8 10 7 10 16 20 26 32 34 31 29 26 24 25 25 24 22 24 26 26 26 23 18 14 13 12 12 14 13 13 11 10 9 8
4 9 6 11 7 10 10 14 11 8 14 14 13 10 14 14 10 10 12 18 24 25 32 33 32 31 30 26 26 23 26 25 26 28 29 28 23 19 16 15 15 15 16 16 15 13 11 10 9
8 11 12 10 12 12 15 16 18 17 18 14 13 12 15 17 14 12 15 18 26 27 32 29 32 34 34 31 31 30 30 30 28 30 30 28 24 21 18 15 14 17 20 18 16 14 12 11 10
13 14 15 15 18 20 21 23 21 27 20 20 25 24 22 20 16 14 13 18 19 27 32 28 28 37 37 35 34 33 33 33 33 33 31 28 25 21 19 17 16 19 20 18 17 15 13 11 10
9 16 21 20 18 15 17 22 21 23 17 16 16 20 20 21 18 19 15 16 21 25 32 36 35 37 39 36 36 36 34 33 33 33 31 29 25 21 18 17 17 20 20 19 17 15 14 12 11
12 17 18 21 21 16 15 22 25 22 22 27 25 23 23 25 24 23 18 17 18 23 31 35 34 35 41 40 37 38 36 34 33 33 31 28 24 20 18 18 18 21 21 20 18 16 14 12 12
11 13 12 2 7 7 10 25 16 8 14 20 22 24 28 24 24 26 23 20 19 21 25 34 37 37 41 41 39 38 37 37 35 34 31 28 24 21 20 20 19 22 22 21 19 16 13 11 11
8 12 18 17 15 5 14 19 14 9 18 24 27 26 26 24 23 22 23 21 22 21 24 32 37 33 41 41 39 38 39 39 38 35 32 29 26 24 21 21 21 22 24 22 20 17 14 13 11
10 13 15 16 0 14 15 24 20 24 21 23 23 18 19 23 29 22 21 21 23 22 26 30 34 32 35 41 40 38 39 40 40 37 36 32 28 26 24 23 23 23 25 24 22 19 17 14 12
19 20 25 20 8 11 19 23 25 25 24 24 25 24 25 28 23 25 25 25 25 23 26 29 29 26 26 40 44 39 38 39 42 40 39 34 31 29 27 25 24 25 27 27 24 21 19 17 16
22 24 28 26 18 14 21 25 24 22 23 28 27 26 23 24 23 19 23 27 25 23 27 30 31 29 25 36 43 41 36 37 42 43 42 37 34 32 29 27 26 27 27 27 26 25 21 21 21
21 25 24 24 12 17 19 21 23 25 25 31 32 30 27 27 24 22 21 24 22 22 26 30 35 31 29 32 32 37 32 33 38 46 43 39 37 33 31 29 28 28 28 29 28 28 28 22 25
22 24 26 23 12 11 14 10 16 19 20 22 30 30 30 28 26 21 22 22 21 21 26 33 32 29 31 40 39 41 42 43 44 47 43 41 41 36 34 31 30 30 31 31 30 30 31 28 27
19 12 12 17 14 18 22 8 17 19 18 21 22 27 29 29 25 22 24 21 21 21 24 29 30 35 38 34 42 42 42 40 39 42 44 44 42 39 36 34 32 32 33 32 33 33 32 31 30
4 2 5 9 10 12 18 17 17 17 22 23 23 27 30 23 20 23 23 18 18 18 20 26 28 27 23 37 42 42 35 39 42 42 40 44 43 40 38 36 35 34 34 34 35 34 34 33 34
4 6 3 4 6 8 2 11 17 10 8 9 13 26 22 23 25 23 20 18 15 15 16 21 23 22 19 27 23 29 33 22 36 33 40 42 44 43 41 38 37 37 36 36 37 37 37 38 38
10 7 4 6 5 4 4 7 3 12 14 20 20 22 25 27 23 20 19 19 16 15 16 15 15 14 13 15 13 18 20 24 24 28 34 42 44 43 42 43 41 39 39 38 38 40 43 40 46
5 9 5 5 5 6 6 2 4 16 8 10 21 21 23 23 23 20 18 18 17 17 18 18 18 14 13 14 15 17 24 27 30 31 29 50 42 38 38 41 45 41 40 39 40 38 42 42 44
6 2 4 5 4 5 4 3 11 15 10 12 16 18 24 22 24 22 20 21 20 19 18 16 15 12 8 9 9 11 16 21 23 25 34 35 44 33 30 26 26 31 29 27 28 36 32 34 30
7 5 5 4 6 4 3 4 13 12 10 10 11 20 24 25 27 24 24 25 25 21 19 16 14 11 11 9 8 6 7 7 11 12 15 12 17 13 13 22 24 31 35 29 28 27 23 25 21
7 10 4 4 2 4 3 4 14 11 11 12 19 22 24 30 27 25 26 29 32 28 24 21 18 14 12 12 13 13 10 10 10 13 12 11 12 11 9 14 16 16 15 16 17 21 17 18 16
Wind_Direction
251 260 274 310 241 235 237 226 257 196 196 193 175 213 228 282 214 263 310 290 198 179 182 181 183 184 178 181 180 177 177 177 173 175 169 166 152 134 129 122 128 140 136 142 147 134 126 132 132
234 242 253 246 243 238 233 229 228 220 144 165 246 227 244 249 252 278 293 261 211 178 184 182 184 188 183 182 184 180 180 180 177 178 174 171 159 140 127 133 149 157 145 143 146 136 131 134 133
223 205 224 220 237 241 243 199 242 227 229 260 268 248 244 232 268 278 301 267 194 180 184 185 184 188 185 185 183 181 180 179 178 176 173 171 164 152 140 146 158 148 153 145 152 134 137 134 129
182 196 233 238 238 237 248 243 249 247 240 238 245 254 235 239 306 298 298 282 196 184 184 188 184 187 187 188 186 184 184 180 178 176 174 176 167 151 170 164 176 156 156 153 143 139 137 135 131
191 209 230 235 247 245 218 257 241 248 249 207 213 230 259 285 293 306 297 262 200 187 189 190 187 187 189 192 191 191 191 189 185 185 182 181 173 165 185 160 171 163 157 169 148 143 138 134 133
201 229 230 232 236 239 240 223 228 236 245 250 258 267 266 269 310 311 294 226 195 189 191 192 192 190 194 196 197 196 198 195 194 192 188 186 180 181 185 164 164 167 170 170 158 148 143 139 137
239 216 240 245 243 239 230 221 233 240 240 234 253 266 275 303 312 333 239 210 197 190 193 194 198 196 199 198 199 199 201 199 197 196 193 190 185 189 190 182 180 179 178 176 170 163 153 147 143
236 256 246 240 245 246 226 232 238 234 250 250 245 251 256 279 326 342 214 197 200 195 196 195 200 202 201 200 201 202 200 202 195 195 198 194 190 196 196 195 203 197 187 182 179 175 166 160 154
214 244 248 243 240 244 242 252 234 274 262 232 231 239 265 316 314 316 244 202 198 197 200 199 201 203 203 202 200 197 193 189 190 191 196 191 193 197 199 205 222 203 192 187 184 185 179 175 173
220 239 257 272 298 254 285 259 285 288 233 237 236 233 293 337 307 282 260 219 209 205 204 202 206 207 206 202 201 194 189 190 193 189 189 194 194 197 190 206 205 198 192 192 192 192 190 187 186
231 248 286 261 287 296 282 277 267 262 250 241 262 289 276 296 300 269 260 241 230 224 206 206 210 211 211 204 198 190 192 189 192 191 191 194 196 201 202 208 211 208 197 197 198 198 197 195 193
263 255 261 272 283 292 275 282 270 260 266 277 279 285 295 289 289 276 260 258 247 225 217 213 217 214 214 210 203 198 194 191 191 194 191 199 203 201 207 205 205 205 202 203 203 204 205 205 206
257 269 269 269 267 269 274 264 266 269 265 272 278 280 280 278 281 276 267 256 259 230 217 219 231 222 217 212 207 205 202 198 194 196 200 206 207 209 210 213 216 208 206 207 208 209 212 215 213
289 284 280 270 267 266 266 265 259 256 267 266 268 275 269 264 273 275 274 258 255 246 226 219 222 229 224 214 212 208 207 204 203 204 206 206 210 212 216 216 215 210 209 211 211 214 216 218 214
284 290 289 268 252 250 256 265 250 258 252 259 257 264 266 261 264 269 270 261 253 252 233 231 224 233 228 217 214 210 209 209 206 209 207 210 214 217 221 222 217 213 212 212 214 213 215 213 210
276 278 283 312 230 235 203 268 261 267 234 247 248 252 257 262 263 261 263 260 256 254 246 232 228 228 227 224 218 214 208 212 211 211 209 213 220 223 225 226 219 214 214 215 213 213 212 204 200
222 265 249 271 236 233 207 265 277 261 248 257 261 253 256 260 259 256 258 256 256 257 245 232 225 231 232 230 225 221 210 214 213 217 217 220 226 230 230 227 219 212 214 216 215 213 208 203 201
243 240 252 251 129 220 232 249 262 268 264 262 261 257 251 261 253 255 254 258 260 254 239 238 227 227 226 227 223 223 217 215 217 221 222 222 225 232 229 223 219 213 215 216 214 211 206 200 204
272 268 269 271 279 252 242 254 263 262 262 260 257 256 253 259 260 256 251 259 253 256 237 235 219 222 225 221 214 216 221 217 219 222 226 223 226 230 228 223 222 218 217 217 215 208 200 202 204
249 257 259 269 254 236 258 258 261 263 258 259 260 250 249 252 253 251 239 248 243 246 230 234 226 220 218 230 222 222 223 222 220 224 226 224 226 229 228 225 224 218 215 213 210 206 203 206 209
237 239 256 254 279 237 265 268 263 258 249 253 252 249 247 247 252 244 239 236 234 236 225 231 227 222 227 231 231 228 228 227 231 231 226 223 227 230 229 228 226 221 218 216 214 209 207 209 211
255 238 250 262 256 250 201 269 262 251 243 241 248 239 234 238 240 241 234 227 223 220 221 219 222 220 227 245 234 228 217 216 223 228 226 227 228 228 227 229 228 224 222 220 218 214 214 214 216
268 287 235 240 251 264 248 254 258 250 255 247 245 236 226 229 229 217 225 216 217 212 220 215 215 220 219 221 228 225 224 221 221 229 227 227 228 228 229 229 228 225 226 226 222 221 221 223 221
294 128 202 237 246 247 249 220 263 245 243 254 243 224 217 211 194 208 209 197 198 206 211 217 230 211 215 204 219 218 216 229 228 226 234 232 229 228 229 229 229 227 227 227 225 226 228 229 228
163 160 210 224 218 254 312 208 253 323 238 241 263 213 186 170 188 189 184 178 178 183 189 212 220 222 219 210 208 216 231 225 209 234 237 239 230 230 230 230 229 227 228 229 230 231 233 232 231
192 192 195 239 224 287 145 238 231 314 272 259 256 165 150 160 170 170 166 163 171 173 168 169 194 193 206 224 217 225 238 251 238 237 241 236 245 238 232 233 231 230 231 234 237 239 241 243 238
169 218 204 275 244 272 200 307 212 349 314 157 120 133 115 136 152 146 142 150 154 158 156 161 175 186 210 226 234 243 251 256 249 256 261 227 236 244 242 240 231 229 234 239 240 256 248 252 246
258 114 193 212 265 234 93 54 336 339 6 114 108 107 107 121 130 126 128 135 134 138 140 144 155 165 181 236 250 253 248 249 252 257 245 238 232 228 215 224 232 222 241 259 262 246 247 253 230
319 269 247 233 236 313 62 23 343 8 26 74 95 99 102 105 113 115 119 121 119 122 128 129 134 141 169 181 179 188 197 208 217 209 206 186 199 213 242 226 229 245 250 257 225 228 235 225 231
293 292 235 271 76 48 81 42 353 21 35 65 78 85 90 105 106 112 115 114 110 110 109 108 105 112 119 127 132 132 128 119 142 162 166 181 203 188 211 239 228 223 213 224 209 199 207 205 187